This demonstration page uses our WeatherBlox Daily Observations layout. Learn more.

Left ArrowRight Arrow

Hourly Observations for September 30, 2021

Temp ( °F °C ) Dew Point ( °F °C ) Humidity (%) Winds ( mph kmh ) Pressure ( in mb ) Visibility ( mi km ) Precip ( " mm )
12:54 am 00:54 Mostly Clear 72 22.2 66 18.9 82 82 SSE 7 11 29.95 1014 10 16 N/A
1:54 am 01:54 Mostly Cloudy 72 22.2 66 18.9 82 82 SSW 3 6 29.94 1014 10 16 N/A
2:54 am 02:54 Cloudy 71 21.7 66 18.9 84 84 SE 6 9 29.93 1014 10 16 N/A
3:54 am 03:54 Partly Cloudy 71 21.7 65 18.3 81 81 S 6 9 29.93 1014 10 16 N/A
4:54 am 04:54 Cloudy 72 22.2 66 18.9 82 82 SSE 9 15 29.93 1014 10 16 0.00 0.00
5:54 am 05:54 Partly Cloudy 71 21.7 66 18.9 84 84 SE 9 15 29.94 1014 10 16 N/A
6:54 am 06:54 Mostly Clear 70 21.1 65 18.3 84 84 SSE 9 15 29.96 1015 10 16 N/A
7:54 am 07:54 Sunny 70 21.1 65 18.3 84 84 SSE 7 11 29.96 1015 10 16 N/A
8:54 am 08:54 Sunny 72 22.2 66 18.9 82 82 SE 8 13 29.97 1015 10 16 N/A
9:54 am 09:54 Mostly Cloudy 72 22.2 65 18.3 79 79 WSW 12 19 30.00 1016 10 16 N/A
10:28 am 10:28 Cloudy 68 20 63 17.2 84 84 WSW 10 17 30.00 1016 8 13 N/A
10:36 am 10:36 Cloudy 68 20 63 17.2 84 84 WSW 9 15 30.01 1016 8 13 N/A
10:54 am 10:54 Cloudy 71 21.7 64 17.8 79 79 SW 9 15 30.02 1017 10 16 N/A
11:49 am 11:49 Cloudy 70 21 63 17 78 78 W 9 15 30.02 1017 10 16 N/A
11:54 am 11:54 Cloudy 69 20.6 62 16.7 78 78 WSW 9 15 30.03 1017 10 16 N/A
12:40 pm 12:40 Cloudy 73 22.8 63 17.2 71 71 SW 9 15 30.01 1016 10 16 N/A
12:54 pm 12:54 Mostly Cloudy 75 23.9 63 17.2 66 66 WSW 9 15 30.02 1017 10 16 N/A
1:13 pm 13:13 Partly Cloudy 76 24.4 63 17.2 64 64 W 8 13 29.99 1016 10 16 N/A
1:54 pm 13:54 Mostly Sunny 77 25 63 17.2 62 62 WSW 8 13 30.00 1016 10 16 N/A
2:29 pm 14:29 Mostly Cloudy 76 24.4 63 17.2 64 64 WNW 8 13 29.97 1015 10 16 N/A
2:54 pm 14:54 Mostly Cloudy 78 25.6 63 17.2 60 60 WSW 5 7 29.98 1015 10 16 N/A
3:06 pm 15:06 Partly Cloudy 77 25 63 17.2 62 62 WSW 9 15 29.96 1014 10 16 N/A
3:54 pm 15:54 Mostly Sunny 75 23.9 63 17.2 66 66 WSW 9 15 29.98 1015 10 16 N/A
4:54 pm 16:54 Mostly Sunny 74 23.3 62 16.7 67 67 W 7 11 29.98 1015 10 16 N/A
5:54 pm 17:54 Sunny 75 23.9 62 16.7 64 64 W 10 17 29.99 1016 10 16 N/A
6:47 pm 18:47 Mostly Cloudy 73 22.8 62 16.7 69 69 W 9 15 30.01 1016 10 16 N/A
6:54 pm 18:54 Cloudy 72 22.2 62 16.7 71 71 W 8 13 30.03 1017 10 16 N/A
7:37 pm 19:37 Partly Cloudy 71 21.7 61 16.1 71 71 W 5 7 30.01 1016 10 16 N/A
7:54 pm 19:54 Partly Cloudy 71 21.7 61 16.1 71 71 W 5 7 30.02 1017 10 16 N/A
8:54 pm 20:54 Clear 68 20 61 16.1 78 78 WNW 5 7 30.03 1017 10 16 N/A
9:54 pm 21:54 Partly Cloudy 66 18.9 60 15.6 81 81 SW 5 7 30.05 1018 10 16 N/A
10:54 pm 22:54 Partly Cloudy 64 17.8 60 15.6 87 87 WSW 5 7 30.05 1018 10 16 N/A
11:54 pm 23:54 Partly Cloudy 63 17.2 59 15 87 87 WNW 6 9 30.04 1017 10 16 N/A

Powered by AerisWeather